Location: Malvern Link
(52.1333°N, 2.3000°W)
Time: 16:43:49
(UTC+00:00)

SPROUT - Pass Details

Date: 03 July 2022
Orbit: 588 x 598 km, 97.9° (Epoch: 09 August)

Event Time Altitude Azimuth Distance (km) Brightness Sun altitude
Exits shadow 02:17:02 10° 242° (WSW) 1,955 ? -10.2°
Reaches altitude 10° 02:17:14 10° 244° (WSW) 1,918 ? -10.2°
Maximum altitude 02:19:13 13° 273° (W) 1,723 ? -10.0°
Drops below altitude 10° 02:21:14 10° 302° (WNW) 1,927 ? -9.9°
Sets 02:24:31 0° 330° (NNW) 2,837 ? -9.6°
